Regional Weather Roundup
Issued by NWS

Home | Current Version | Previous Version | Graphics & Text | Print | Product List | Glossary On
Versions: 1 2 3 4 5 6 7 8 9 10 11 12 13 14 15 16 17 18 19 20 21 22 23 24 25 26 27 28 29 30 31 32 33 34 35 36 37 38 39 40 41 42 43 44 45 46 47 48 49 50
000
ASUS43 KLOT 211504
RWRIL

ILLINOIS REGIONAL WEATHER ROUNDUP
NATIONAL WEATHER SERVICE CHICAGO/ROMEOVILLE IL
1000 AM CDT FRI JUL 21 2017

NOTE: "FAIR" INDICATES FEW OR NO CLOUDS BELOW 12,000 FEET WITH NO
SIGNIFICANT WEATHER AND/OR OBSTRUCTIONS TO VISIBILITY.

* THESE STATIONS ARE NOT UNDER NWS QUALITY CONTROL. THEY ALSO MAY NOT
  REPORT WEATHER SUCH AS PRECIPITATION OR FOG.

ILZ001-002-007-009-015-016-024-211600-
NORTHWEST ILLINOIS

CITY           SKY/WX    TMP DP  RH WIND       PRES   REMARKS
MOLINE         MOSUNNY   79  71  76 S6        29.98S HX  82
STERLING*      LGT RAIN  77  75  93 S3        29.99R
SAVANNA*       CLOUDY    73  72  95 NE3       29.99R
$$

ILZ003-004-008-010-011-017-018-211600-
NORTH CENTRAL ILLINOIS

CITY           SKY/WX    TMP DP  RH WIND       PRES   REMARKS
ROCKFORD       CLOUDY    79  73  82 CALM      30.01R HX  82
FREEPORT*      CLOUDY    75  73  95 SE6       29.99F
ROCHELLE*      CLOUDY    77  73  88 CALM      30.01R
DE KALB*       CLOUDY    77  73  85 SE7       30.01S
PERU*          PTSUNNY   79  73  81 SW8       30.00R HX  82
$$

ILZ005-006-012>014-019>023-211600-
NORTHEAST ILLINOIS

CITY           SKY/WX    TMP DP  RH WIND       PRES   REMARKS
CHICAGO-OHARE  CLOUDY    83  70  64 S8        29.99R HX  87
CHICAGO-MIDWAY CLOUDY    83  70  64 S6        29.99S HX  87
AURORA         MOSUNNY   79  73  82 SE6       30.00S HX  82
LANSING*       CLOUDY    79  70  74 SW5       30.00S HX  82
JOLIET*        CLOUDY    79  74  85 CALM      29.99S HX  82
WAUKEGAN       CLOUDY    78  71  79 MISG      30.00R HX  80
DUPAGE AIRPORT PTSUNNY   79  73  82 SE8       29.98F HX  82
WHEELING       CLOUDY    80  72  76 S9        30.01R HX  84
MORRIS*        CLOUDY    77  73  86 CALM      29.98R
ROMEOVILLE*    MOSUNNY   78  70  74 SE5       30.00R HX  81
NORTHERLY ISL    N/A     79  71  76 CALM        N/A  HX  82
$$

LMZ740>746-211600-
SOUTHERN LAKE MICHIGAN

STATION/POSITION SKY/WX   TEMP    WIND        PRES    VSBY  WAVE
                          AIR SEA DIR/SP/G                  HT/PER
                          (F)     (DEG/KT/KT) (MB)    (MI)  (FT/S)
SOUTHERN BUOY              71 70   80/  6/  6 1014.9          0
WILMETTE HARBOR            73 72  190/  6/  8   N/A           0
HARRISON CRIB              75     170/  8/  8   N/A
BURNHAM HARBOR             78                   N/A
CALUMET HARBOR             75      50/  5/  6 1014.9F
BURNS HARBOR               76     300/  5/  6 1015.6S
MICHIGAN CITY              79      70/  5/  8   N/A
MICHIGAN CITY 6N           76 75   40/  2/  2   N/A           1
ST. JOSEPH                 75 75  110/  4/  6 1014.7F         0
$$

ILZ025>027-034>036-040-047-049-050-058-095>099-211600-
WEST-CENTRAL ILLINOIS

CITY           SKY/WX    TMP DP  RH WIND       PRES   REMARKS
QUINCY         SUNNY     88  75  65 S8        29.97F HX  97
GALESBURG*     CLOUDY    81  72  74 S9        30.00S HX  86
MACOMB*        SUNNY     83  75  75 SE7       30.00F HX  90
JACKSONVILLE*  SUNNY     87  77  71 CALM      29.98F HX  99
PITTSFIELD*    SUNNY     88  76  69 W6        30.00F HX  99
$$

ILZ028>032-037-038-041>044-048-051>054-059>061-211600-
CENTRAL ILLINOIS

CITY           SKY/WX    TMP DP  RH WIND       PRES   REMARKS
PONTIAC        CLOUDY    78  77  98 S7        30.00S HX  80
BLOOMINGTON    MOSUNNY   83  73  72 S7        30.01F HX  89
DECATUR        MOSUNNY   84  74  71 SE9       29.99F HX  91
PEORIA         SUNNY     83  74  74 S9        29.98F HX  89
LACON*         CLOUDY    80  75  86 CALM      29.98S HX  85
LINCOLN*       SUNNY     85  75  70 SE7       29.99S HX  94
SPRINGFIELD    SUNNY     88  78  72 S5        29.98F HX 101
TAYLORVILLE    SUNNY     86  76  74 SE3       30.00S HX  96
$$

ILZ033-039-045-046-055>057-062-063-211600-
EAST-CENTRAL ILLINOIS

CITY           SKY/WX    TMP DP  RH WIND       PRES   REMARKS
CHAMPAIGN      CLOUDY    83  73  72 CALM      30.01R HX  89
RANTOUL*       PTSUNNY   82  74  77 CALM      30.01R HX  88
MATTOON        SUNNY     87  76  69 SE8       30.00F HX  97
PARIS*         SUNNY     84  75  73 SE5       30.01F HX  92
$$

ILZ079-100>102-211600-
SOUTHWEST ILLINOIS

CITY           SKY/WX    TMP DP  RH WIND       PRES   REMARKS
ALTON          MOSUNNY   90  77  66 SW6       30.01S HX 102
BELLEVILLE     SUNNY     91  75  58 W7        30.00F HX 102
CAHOKIA*       SUNNY     92  72  51 CALM      29.99F HX  99
SPARTA*        SUNNY     89  75  62 W8        30.01F HX  99
$$

ILZ064>066-069>071-074>076-080>082-084>086-088>090-092>094-211600-
SOUTH-CENTRAL ILLINOIS

CITY           SKY/WX    TMP DP  RH WIND       PRES   REMARKS
CARBONDALE     SUNNY     88  79  74 W3        30.00F HX 103
CAIRO*         SUNNY     87  79  77 SW5       30.02S HX 100
EFFINGHAM*     SUNNY     88  77  70 E6        30.01F HX  99
MARION         SUNNY     90  77  66 SW6       30.02S HX 102
MT. VERNON     SUNNY     88  77  69 W5        30.00F HX 100
CENTRALIA*     SUNNY     89  77  68 CALM      29.99F HX 101
SALEM*         SUNNY     90  76  63 CALM      29.99F HX 102
METROPOLIS*    SUNNY     89  79  73 W6        30.03R HX 104
$$

ILZ067-068-072-073-078-083-087-091-211600-
SOUTHEAST ILLINOIS

CITY           SKY/WX    TMP DP  RH WIND       PRES   REMARKS
LAWRENCEVILLE  CLOUDY    86  75  69 SE9       30.01F HX  95
FLORA*         PTSUNNY   87  78  74 SE5       30.01S HX  99
FAIRFIELD*     SUNNY     86  78  75 CALM      29.99F HX  98
HARRISBURG*    MOSUNNY   88  78  73 W6        30.01S HX 101
ROBINSON*      MOSUNNY   85  75  73 SE8       30.01F HX  93
CARMI*         SUNNY     87  79  78 CALM      30.00S HX 101
$$

ABBREVIATIONS USED IN REMARKS
   TC - TEMPERATURE IN CELSIUS
  WCI - WIND CHILL INDEX
   HX - HEAT INDEX
  VSB - VISIBILITY
$$





USA.gov is the U.S. government's official web portal to all federal, state and local government web resources and services.